Temperature
17 17 16 16 16 16 16 15 15 14 13 13 13 13 13 13 13 13 13 13 13 13 13 13 13 13 13 13 13 13 12 12 12 12 12 12 12 11
17 17 16 16 16 16 15 15 15 15 14 13 13 13 13 13 13 12 13 13 12 12 12 12 12 12 12 12 12 12 12 12 12 12 11 11 11 11
16 16 16 16 16 16 15 15 15 14 14 14 13 13 13 12 12 12 12 12 12 12 12 12 12 12 12 12 12 11 11 11 11 11 11 11 11 11
16 16 16 16 16 15 15 15 15 14 14 14 13 13 12 12 12 12 12 12 12 12 12 12 12 11 11 11 11 11 11 11 11 11 10 10 10 10
16 16 16 15 15 15 15 15 14 14 14 14 13 13 12 12 12 12 12 12 12 12 12 11 11 11 11 11 11 11 10 10 10 10 10 10 10 10
16 15 15 15 15 15 15 15 14 14 14 13 13 13 12 12 12 12 12 12 12 11 11 11 11 11 11 11 10 10 10 10 10 10 10 9 9 9
16 15 15 15 15 15 15 14 14 14 14 13 13 13 12 12 12 12 12 11 11 11 11 11 11 11 11 10 10 10 10 10 10 9 9 9 9 9
15 15 15 15 15 14 14 14 14 14 14 13 13 13 13 12 12 12 11 11 11 11 11 11 11 10 10 10 10 10 10 9 9 9 9 9 9 8
15 15 15 15 14 14 14 14 14 13 13 13 13 13 12 12 12 12 11 11 11 11 11 11 11 10 10 10 10 10 10 10 9 9 9 9 8 8
15 15 15 14 14 14 14 14 13 13 13 13 13 12 12 12 12 12 11 11 11 11 11 10 10 10 10 10 10 10 10 9 9 9 9 8 8 8
15 14 14 14 14 14 14 13 13 13 13 12 12 12 12 12 11 11 11 11 11 11 10 10 10 10 10 10 10 10 9 9 9 9 9 8 8 8
14 14 14 14 14 13 13 13 13 13 12 12 12 12 12 11 11 11 11 11 11 10 10 10 10 10 10 10 10 10 9 9 9 9 9 8 8 8
14 14 14 14 13 13 13 13 13 12 12 12 12 12 12 11 11 11 11 11 10 10 10 10 10 10 10 10 10 10 9 9 9 9 9 8 8 8
14 14 14 13 13 13 13 13 12 12 12 12 12 11 11 11 11 11 11 10 10 10 10 10 10 10 10 9 9 9 9 9 9 9 9 8 8 8
13 13 13 13 13 13 13 12 12 12 12 11 11 11 11 11 11 11 11 10 10 10 10 10 10 10 9 9 9 9 9 9 9 9 8 8 8 8
13 13 13 12 12 12 12 12 12 12 12 11 11 11 11 11 10 10 10 10 10 10 10 10 9 9 9 9 9 9 9 9 9 8 8 8 8 8
13 12 12 12 12 12 12 12 12 11 11 11 11 11 11 10 10 10 10 10 10 10 10 9 9 9 9 9 9 9 9 9 8 8 8 8 8 8
12 12 12 12 12 12 11 11 11 11 11 11 11 10 10 10 10 10 10 10 9 9 9 9 9 9 9 9 9 9 8 8 8 8 8 8 8 8
12 12 12 12 12 11 11 11 11 11 11 11 10 10 10 10 10 10 9 9 9 9 9 9 9 8 8 8 9 9 8 8 8 8 8 8 8 8
12 12 12 12 11 11 11 11 11 11 11 10 10 10 10 9 9 9 9 9 9 9 9 9 9 8 8 8 8 8 8 8 8 8 8 8 8 7
12 12 12 11 11 11 11 11 11 10 10 10 10 10 10 9 9 9 9 9 9 9 9 9 9 8 8 8 8 8 8 8 8 8 8 7 7 7
12 12 11 11 11 11 11 11 10 10 10 10 10 10 9 9 9 9 9 9 9 9 9 9 8 8 8 8 8 8 8 8 8 7 7 7 7 7
12 11 11 11 11 11 11 10 10 10 10 10 10 10 9 9 9 9 9 9 8 8 8 8 8 8 8 8 8 8 7 7 7 7 7 7 7 7
Wind_Speed
1 1 1 1 2 2 4 4 4 3 2 1 1 1 2 4 5 6 7 8 9 10 11 11 12 11 11 11 11 11 11 10 10 10 10 9 8 8
1 1 1 1 2 3 3 2 2 3 2 1 1 1 2 3 5 5 6 7 9 9 10 10 11 11 11 11 11 12 13 13 12 12 11 11 10 10
1 1 1 2 2 2 3 3 3 3 3 1 1 1 2 3 3 4 5 6 6 8 9 9 9 9 10 11 12 12 12 12 12 11 11 11 11 11
1 2 1 1 2 2 2 3 3 3 4 4 2 2 2 2 2 2 3 4 4 6 6 7 7 8 8 9 9 10 10 10 10 10 10 10 10 10
2 2 1 2 2 2 2 3 3 3 3 4 3 1 1 2 2 2 2 2 3 3 4 4 5 5 6 6 7 7 7 8 8 8 8 8 8 8
2 2 2 2 2 3 3 3 4 4 4 5 3 2 2 2 2 1 1 1 1 2 2 2 3 3 4 4 5 5 5 5 6 6 6 6 6 7
2 2 1 2 3 3 3 4 5 4 4 4 3 2 2 2 2 2 2 1 0 0 1 1 1 1 1 2 3 4 4 4 5 5 5 5 5 5
2 1 1 2 2 3 4 6 6 6 6 4 3 4 4 3 3 3 3 2 1 1 1 0 0 1 1 1 2 4 4 4 4 4 4 4 3 3
2 1 1 1 2 2 4 4 3 4 6 5 5 5 5 5 5 4 4 3 2 2 2 1 1 1 2 3 4 5 5 5 4 4 3 3 3 3
2 2 2 1 1 3 3 3 2 1 3 3 4 5 4 5 5 5 4 3 1 2 3 1 1 2 2 3 5 6 7 6 6 5 5 5 4 4
1 1 2 2 2 4 4 3 1 0 1 2 3 3 3 5 6 4 4 3 2 2 3 2 1 1 2 2 4 7 8 8 8 7 7 6 6 5
1 1 1 2 2 4 4 3 3 2 1 1 1 2 2 4 6 5 5 4 2 2 3 3 2 1 2 2 2 4 5 8 9 9 8 8 7 5
2 2 2 3 3 4 4 4 4 3 2 2 1 1 1 1 3 4 5 4 3 3 3 4 2 2 2 2 2 2 4 4 5 6 8 9 9 8
3 3 3 4 4 4 4 4 5 4 3 2 2 1 2 2 2 3 4 5 4 4 5 5 3 4 3 3 3 2 2 4 4 4 5 5 7 9
3 4 4 4 3 3 3 3 4 3 3 3 3 3 3 3 2 2 2 2 2 2 4 6 4 4 4 4 3 2 2 2 4 4 4 5 5 4
2 2 2 2 2 2 2 2 2 3 3 4 3 3 2 2 2 2 2 2 2 2 2 4 5 5 4 4 3 3 3 3 3 4 4 4 5 6
3 1 1 1 1 1 1 2 2 2 3 3 3 2 2 2 2 2 2 2 3 3 3 2 3 4 4 4 3 4 4 3 3 3 3 4 4 6
5 3 3 3 4 4 4 3 3 4 4 4 3 3 3 3 3 2 2 3 5 5 4 3 2 1 2 3 6 5 4 4 3 3 4 4 5 5
4 4 5 5 5 5 5 4 5 4 4 4 4 4 4 4 4 4 4 4 5 5 5 4 3 3 4 6 5 8 6 4 3 3 4 5 5 5
4 5 6 5 5 5 5 5 5 4 3 4 5 5 5 5 5 5 5 6 6 6 5 4 5 6 7 6 5 4 9 6 4 4 4 4 4 4
6 6 6 6 5 5 5 5 5 5 5 5 5 5 5 5 6 6 6 7 7 6 6 6 7 8 5 3 3 4 4 9 9 5 4 3 3 3
6 7 6 6 6 6 5 5 5 5 5 5 6 6 6 6 7 7 6 6 6 6 7 6 4 4 4 5 6 6 4 3 6 9 9 8 4 5
7 7 7 7 7 6 6 6 7 6 6 6 6 6 6 6 6 6 6 6 6 6 6 5 3 3 5 6 6 5 5 4 2 3 5 8 11 12
Wind_Direction
146 144 147 150 154 155 153 158 156 171 198 187 142 79 86 79 69 67 65 66 68 69 72 74 74 74 72 72 71 74 81 79 76 77 77 77 78 79
109 114 116 132 133 146 155 159 161 161 169 168 177 153 118 104 81 74 73 72 70 73 76 78 78 76 76 75 75 77 80 79 77 77 78 79 77 78
90 114 121 130 136 145 146 147 146 143 152 153 132 132 123 113 92 85 79 76 74 75 78 79 81 81 80 80 82 81 81 81 81 81 80 79 79 78
107 105 102 115 119 136 146 152 155 150 151 156 149 142 134 137 113 96 87 83 81 80 82 85 86 84 84 86 90 88 85 84 83 81 80 80 79 77
118 118 116 125 131 141 144 150 150 141 137 149 154 144 135 137 116 93 83 69 91 91 87 89 92 93 94 97 101 101 100 96 93 91 89 86 83 80
103 114 123 140 158 159 150 148 139 131 130 138 146 148 144 142 142 142 114 55 73 84 82 92 98 103 106 113 118 117 115 112 109 105 101 98 93 87
90 88 104 125 142 158 156 154 145 140 142 147 156 157 167 171 182 180 177 162 17 126 80 62 96 99 108 132 138 136 133 130 127 124 114 110 104 96
115 86 86 87 109 121 140 154 156 159 165 166 178 191 199 196 182 179 171 170 228 191 172 156 144 234 231 208 190 177 170 159 149 145 137 127 124 124
138 122 101 76 96 116 126 132 147 163 173 175 188 205 205 200 185 185 188 195 214 186 176 218 221 249 246 233 216 203 192 182 174 171 173 172 170 166
155 159 140 115 118 129 132 129 137 171 195 195 202 208 206 196 194 191 184 176 183 183 182 216 235 256 264 245 222 210 204 201 200 199 202 206 205 202
143 142 151 151 140 136 136 140 141 241 171 171 186 186 178 176 170 153 158 169 209 214 193 203 223 250 258 255 237 220 216 215 216 216 216 212 208 205
153 177 169 171 163 154 155 161 183 214 168 138 121 128 151 162 172 184 184 187 199 225 195 191 194 199 252 247 240 229 225 224 221 220 221 220 213 207
191 214 225 199 190 186 181 190 204 189 178 170 156 141 137 169 185 193 194 194 203 230 195 185 194 195 223 258 255 231 221 220 219 226 229 226 217 208
202 216 221 202 199 197 200 203 187 168 165 168 176 201 219 225 226 219 213 210 217 231 207 190 203 202 210 239 254 242 229 223 218 225 227 224 220 220
209 209 212 208 207 210 213 201 184 176 175 192 211 225 231 231 223 218 228 232 245 240 208 203 209 206 215 234 243 241 240 232 218 226 227 219 216 213
203 199 204 214 205 215 218 210 199 199 199 214 225 232 230 221 219 219 226 220 238 262 233 216 213 206 220 230 233 243 235 233 225 227 230 230 222 218
165 150 159 193 230 249 239 226 211 202 212 221 220 223 226 231 236 223 214 211 224 246 255 233 220 216 227 223 235 244 241 239 238 222 215 231 234 227
158 196 216 219 224 232 236 238 229 225 225 222 221 221 224 230 236 230 221 223 232 241 244 238 208 215 239 240 223 237 244 246 238 215 210 227 245 237
180 212 224 227 229 230 231 232 234 231 223 221 224 227 226 229 232 234 230 232 239 245 246 235 213 215 242 261 247 215 226 239 226 216 216 221 240 246
213 222 228 230 230 231 232 234 236 232 227 230 233 233 228 228 232 236 234 236 240 244 247 239 225 221 229 245 254 246 216 221 223 227 231 232 246 256
221 229 233 233 232 233 233 230 229 230 230 229 234 233 230 230 235 238 240 238 237 241 246 247 242 229 227 220 243 255 241 218 218 221 218 225 240 245
226 230 232 232 230 231 231 229 231 232 231 231 235 235 233 230 234 237 239 240 239 239 248 253 242 208 211 224 241 255 260 245 228 230 226 220 224 236
229 230 232 232 232 231 230 230 229 233 233 233 234 235 232 232 234 237 239 240 243 246 250 251 238 223 227 231 239 249 254 252 241 237 247 246 240 245
Height
1545 1545 1544 1544 1544 1545 1545 1546 1547 1547 1548 1548 1549 1549 1549 1549 1548 1548 1547 1547 1546 1546 1545 1544 1543 1543 1542 1541 1540 1539 1540 1540 1540 1541 1542 1542 1542 1542
1544 1543 1543 1543 1543 1543 1544 1544 1545 1546 1546 1546 1547 1548 1548 1548 1548 1548 1547 1547 1547 1546 1545 1545 1544 1543 1543 1542 1541 1540 1540 1540 1540 1541 1541 1542 1541 1541
1542 1542 1542 1542 1542 1542 1542 1543 1544 1544 1544 1545 1546 1547 1547 1547 1547 1547 1548 1547 1547 1547 1546 1545 1545 1544 1543 1543 1542 1541 1541 1541 1541 1541 1541 1541 1541 1541
1541 1541 1541 1541 1541 1541 1541 1542 1542 1543 1543 1543 1544 1545 1546 1547 1547 1547 1547 1547 1547 1547 1546 1546 1545 1545 1544 1544 1543 1543 1542 1542 1542 1542 1541 1541 1541 1541
1540 1540 1540 1540 1540 1540 1540 1541 1541 1541 1542 1542 1543 1544 1545 1546 1546 1546 1547 1547 1547 1547 1546 1546 1546 1545 1545 1544 1543 1543 1543 1542 1542 1542 1542 1542 1541 1541
1539 1539 1539 1539 1539 1539 1539 1540 1540 1540 1541 1541 1542 1543 1544 1545 1545 1546 1546 1546 1546 1546 1546 1546 1545 1545 1545 1544 1543 1543 1543 1543 1542 1542 1542 1542 1541 1541
1538 1538 1538 1538 1538 1538 1538 1539 1539 1540 1540 1540 1541 1542 1542 1543 1544 1544 1545 1545 1545 1546 1545 1545 1545 1544 1544 1544 1544 1543 1543 1543 1543 1542 1542 1541 1541 1541
1537 1537 1537 1537 1537 1537 1538 1538 1539 1539 1539 1539 1540 1540 1540 1541 1542 1543 1543 1544 1544 1545 1544 1544 1544 1544 1544 1543 1543 1543 1543 1542 1542 1542 1542 1541 1541 1541
1536 1536 1536 1536 1536 1537 1537 1537 1537 1538 1538 1539 1538 1539 1539 1540 1540 1541 1541 1542 1542 1543 1543 1543 1543 1543 1543 1542 1542 1542 1542 1542 1541 1541 1541 1541 1541 1540
1535 1535 1535 1535 1535 1536 1536 1536 1536 1536 1537 1537 1537 1537 1538 1538 1538 1539 1539 1540 1540 1541 1541 1541 1541 1541 1541 1541 1541 1541 1541 1541 1541 1541 1541 1540 1540 1540
1533 1534 1534 1534 1534 1534 1534 1534 1535 1535 1535 1536 1536 1536 1536 1536 1537 1537 1537 1537 1537 1538 1539 1539 1539 1539 1539 1539 1539 1539 1539 1539 1539 1539 1539 1539 1539 1539
1531 1532 1532 1532 1532 1532 1533 1533 1533 1533 1533 1534 1534 1534 1535 1535 1535 1535 1535 1536 1536 1536 1536 1537 1537 1537 1537 1537 1537 1537 1537 1537 1537 1537 1537 1537 1537 1537
1529 1530 1530 1530 1531 1531 1531 1531 1531 1532 1532 1532 1532 1532 1533 1533 1533 1533 1533 1534 1534 1533 1534 1534 1534 1534 1535 1534 1534 1535 1535 1535 1534 1534 1535 1535 1535 1534
1527 1528 1528 1529 1529 1529 1529 1529 1529 1530 1530 1530 1530 1530 1530 1530 1531 1531 1531 1531 1531 1531 1531 1532 1531 1531 1531 1531 1531 1531 1531 1531 1531 1531 1531 1531 1532 1532
1524 1525 1526 1526 1526 1526 1526 1527 1527 1527 1527 1527 1527 1527 1528 1528 1528 1528 1528 1528 1528 1528 1528 1528 1528 1528 1528 1528 1528 1527 1527 1527 1527 1527 1527 1527 1527 1528
1521 1522 1523 1523 1523 1523 1524 1524 1524 1524 1524 1524 1524 1524 1524 1525 1525 1525 1525 1525 1525 1525 1525 1525 1525 1525 1524 1524 1524 1524 1524 1523 1523 1523 1523 1523 1524 1524
1517 1518 1518 1519 1519 1520 1520 1520 1520 1520 1520 1520 1520 1521 1521 1521 1521 1522 1522 1522 1522 1522 1521 1522 1522 1521 1521 1521 1520 1520 1520 1519 1519 1519 1519 1519 1519 1519
1513 1513 1514 1514 1514 1515 1516 1516 1516 1516 1516 1517 1517 1517 1517 1517 1518 1518 1518 1518 1518 1518 1518 1518 1518 1517 1517 1516 1517 1516 1516 1515 1515 1516 1515 1515 1515 1515
1508 1508 1509 1509 1510 1511 1511 1512 1512 1512 1512 1512 1513 1513 1513 1513 1513 1513 1513 1513 1513 1513 1513 1513 1513 1513 1512 1512 1512 1512 1512 1512 1512 1511 1511 1511 1511 1511
1503 1504 1504 1505 1505 1506 1506 1507 1507 1508 1508 1508 1508 1508 1508 1508 1508 1508 1508 1509 1508 1509 1508 1508 1508 1508 1507 1508 1507 1507 1508 1507 1507 1507 1507 1507 1507 1507
1498 1499 1500 1500 1500 1501 1502 1502 1502 1503 1503 1503 1503 1503 1503 1504 1503 1504 1504 1504 1504 1504 1503 1503 1503 1504 1503 1503 1503 1502 1503 1503 1503 1502 1502 1502 1502 1502
1494 1495 1495 1495 1495 1496 1496 1497 1497 1497 1498 1498 1498 1498 1498 1498 1498 1499 1499 1499 1499 1498 1498 1498 1498 1498 1498 1498 1497 1497 1498 1498 1498 1498 1498 1498 1497 1497
1490 1490 1490 1490 1490 1490 1491 1491 1491 1492 1492 1492 1492 1492 1493 1493 1493 1493 1493 1493 1493 1493 1493 1493 1493 1493 1493 1493 1493 1493 1492 1492 1492 1492 1493 1493 1493 1493